This is the latest recevied weather packets stored in our database for station/object KC3AWA. If no packets are shown the sender has not sent any weather packets the latest 1 day(s).
| Time | Temp. | Humidity | Pressure | Rain* | Wind** | Luminosity | Snow |
|---|---|---|---|---|---|---|---|
| 1777986670 | 17.78° C | 63% | 1008 hPa | 0 mm | 3.13 m/s, 118° | 208 W/m² | - |
| 1777986368 | 17.78° C | 64% | 1008.2 hPa | 0 mm | 2.24 m/s, 246° | 178 W/m² | - |
| 1777986066 | 17.78° C | 64% | 1008.3 hPa | 0 mm | 1.79 m/s, 162° | 229 W/m² | - |
| 1777985762 | 17.78° C | 64% | 1008 hPa | 0 mm | 3.58 m/s, 233° | 170 W/m² | - |
| 1777985459 | 17.78° C | 64% | 1008.2 hPa | 0 mm | 2.24 m/s, 257° | 96 W/m² | - |
| 1777985155 | 17.22° C | 64% | 1007.9 hPa | 0 mm | 1.79 m/s, 175° | 157 W/m² | - |
| 1777984851 | 17.78° C | 64% | 1008 hPa | 0 mm | 2.24 m/s, 186° | 119 W/m² | - |
| 1777984548 | 17.78° C | 65% | 1008.1 hPa | 0 mm | 1.34 m/s, 224° | 119 W/m² | - |
| 1777984244 | 17.22° C | 65% | 1008.1 hPa | 0 mm | 0.45 m/s, 292° | 152 W/m² | - |
| 1777983941 | 17.22° C | 64% | 1008.1 hPa | 0 mm | 1.34 m/s, 244° | 148 W/m² | - |
| 1777983638 | 17.22° C | 64% | 1007.9 hPa | 0 mm | 3.13 m/s, 237° | 98 W/m² | - |
| 1777983335 | 17.22° C | 66% | 1007.9 hPa | 0 mm | 3.58 m/s, 225° | 108 W/m² | - |
| 1777983032 | 17.22° C | 65% | 1007.9 hPa | 0 mm | 1.34 m/s, 213° | 97 W/m² | - |
| 1777982728 | 17.22° C | 64% | 1007.8 hPa | 0 mm | 1.79 m/s, 96° | 85 W/m² | - |
| 1777982423 | 17.22° C | 64% | 1007.9 hPa | 0 mm | 1.79 m/s, 214° | 95 W/m² | - |
| 1777982118 | 17.22° C | 65% | 1008 hPa | 0 mm | 3.58 m/s, 189° | 122 W/m² | - |
| 1777981816 | 17.22° C | 65% | 1007.7 hPa | 0 mm | 4.92 m/s, 252° | 80 W/m² | - |
| 1777981513 | 17.22° C | 65% | 1007.6 hPa | 0 mm | 1.79 m/s, 230° | 74 W/m² | - |
| 1777981209 | 17.22° C | 65% | 1007.7 hPa | 0 mm | 2.24 m/s, 171° | 78 W/m² | - |
| 1777980906 | 17.22° C | 66% | 1007.5 hPa | 0 mm | 2.24 m/s, 223° | 78 W/m² | - |
| 1777980602 | 17.22° C | 66% | 1007.6 hPa | 0 mm | 1.79 m/s, 284° | 95 W/m² | - |
| 1777980299 | 16.67° C | 66% | 1007.4 hPa | 0 mm | 3.13 m/s, 226° | 91 W/m² | - |
| 1777979996 | 16.67° C | 66% | 1007.2 hPa | 0 mm | 2.68 m/s, 222° | 84 W/m² | - |
| 1777979690 | 16.67° C | 67% | 1007.5 hPa | 0 mm | 0.89 m/s, 170° | 69 W/m² | - |
| 1777979386 | 16.67° C | 67% | 1007.3 hPa | 0 mm | 2.68 m/s, 158° | 65 W/m² | - |
* Rain latest hour (hover to see other rain measurements)
** Current wind speed in m/s (hover to see current wind gust speed)